Погода в Манычском

Россия / Ставропольский край     46°04′28″N   43°06′10″E
темп.,
°C
ветер,
м/с
пор.,
м/с
влажн.,
%
обл.,
%
осадки,
мм/ч
давл.,
гПа
погр.,
м
12 мая, ср
ср1200:00+9св5787100 0.0 1017173
03:00+7св2288100 0.0 101715
06:00+9ю11795 0.0 101857
09:00+14вюв23660 0.0 1018783
12:00+18юв345425 0.0 10171500
15:00+20вюв45495 0.0 10161734
18:00+19в355944 0.0 1015139
21:00+14вюв34725 0.0 101542
13 мая, чт
чт1300:00+13в33738 0.0 101435
03:00+12юв33740 0.0 101425
06:00+13юв35770 0.0 1014107
09:00+19вюв56580 0.0 1014585
12:00+23вюв44470 0.0 1014905
15:00+25вюв44434 0.0 10141071
18:00+23вюв36565 0.0 1014140
21:00+19вюв45595 0.0 101457
14 мая, пт
пт1400:00+17вюв456337 0.0 101447
03:00+16вюв476899 0.0 1014105
06:00+15вюв49785 0.0 1014184
09:00+21юв56580 0.0 1014471
12:00+26вюв67490 0.0 1013859
15:00+29юв68430 0.0 10121284
18:00+27юв49524 0.0 1011199
21:00+21вюв716500 0.0 1012343
15 мая, сб
сб1500:00+18вюв616500 0.0 1012342
03:00+15вюв516440 0.0 1012300
06:00+15юв412590 0.0 1012255
09:00+21юв674392 0.0 1012488
12:00+26юв45381 0.0 1012896
15:00+29ююв34370 0.0 10111180
18:00+28юз22490 0.0 101015
21:00+20юв4543100 0.0 101264
16 мая, вс
вс1600:00+17вюв51148100 0.0 1011194
03:00+17вюв61450100 0.0 1011252
06:00+16вюв414665 0.0 1011296
09:00+23вюв814445 0.0 1010715
12:00+29вюв912290 0.0 10091520
15:00+31вюв712282 0.0 10072489
18:00+26вюв8163580 0.0 1006467
21:00+22вюв81837100 0.0 1007601